Location: Betra
(48.4113°N, 8.6634°E)
Time: 20:56:46
(UTC+00:00)

Resurs 1-4 Rocket - Pass Details

Date: 23 May 2024
Orbit: 798 x 813 km, 98.7° (Epoch: 16 June)

Event Time Altitude Azimuth Distance (km) Brightness Sun altitude
Rises 02:05:17 0° 10° (N) 3,319 6.5 -11.9°
Reaches altitude 10° 02:07:41 10° 6° (N) 2,384 5.5 -11.7°
Maximum altitude 02:12:45 51° 292° (WNW) 1,003 2.5 -11.1°
Enters shadow 02:17:04 14° 220° (SW) 2,096 3.6 -10.7°
